Showing default

QIANFAN-178, 69395

Orbit data source: Space-Track

QIANFAN-178, 69395 is a Chinese payload satellite in LEO that was launched on Thu, 04 Jun 2026 UTC via a CHANG ZHENG 6A launch vehicle from the Taiyaun Space Center, China (TSC). Payload-class satellites include a variety of spacecraft equipped with specific instruments for various scientific and technological missions. These include communications satellites like Starlink; space stations such as the ISS; scientific satellites like the Hubble; Earth observation satellites from companies like Planet Labs, Umbra, and HawkEye 360; GPS; miniature CubeSats for education and research; and military/defense satellites.

Loading next visibility...
Identifier
69395, 2026-124P
Orbit
LEO
Country
Flag of CNCN / PRC
Related business
Manufacturer
GESIH
Mission
Operational spacecraft
Bus & Motor
QIANFAN, Unknown motor
Mass
267 kg wet, ~267 kg dry
Launch date (UTC)
2026-06-04 (2 weeks ago)
Launch vehicle
CHANG ZHENG 6A
Launch site
Taiyaun Space Center, China (TSC)
Object type
Payload
Rocket body
Debris
Shape & HBR
Unknown
Radar Cross Section
Large (>1 m²)

Expand to show TLE details & history
Last TLE update: 9 hours ago

TLE from 9 hours ago
0 QIANFAN-178
1 69395U 26124P   26171.46966823  .00000260  00000-0  11053-3 0  9999
2 69395  88.9983   1.6589 0003089 146.3393 213.7995 14.22274602  2285
Epoch: 2026-06-20T11:16Z
TLE epoch observation values (Epoch: 2026-06-20T11:16:19.335Z)
Latitude
-0°
Longitude
-76.1055°
Altitude
822.575 km
Speed
7.441 km/s
True Right ascension
00h 06m 38s
True Declination
0° 00' 00"
Sunlit
Object was in daylight at epoch
Visualization orbit readout
Latitude
Unknown
Longitude
Unknown
Altitude
Unknown
Speed
Unknown
Apparent Right ascension
Unknown
Apparent Declination
Unknown
Sunlit
N/A
Visualization observer readout
Local Sidereal Time
07:17:27
Azimuth
Unknown
Elevation
Unknown
Doppler factor
Unknown
Orbital elements
Apogee altitude
816.84 km
Perigee altitude
812.397 km
Semi-major axis
7,192.755 km
Eccentricity
0.00031
Inclination
88.9983°
RAAN
1.6589°
Arg. of periapsis
146.3393°
True anomaly
213.77982°
Mean anomaly
213.7995°
Eccentric anomaly
213.78966°
Mean motion
3.55795 °/min
Orbital period
101.18 mins
BSTAR
0.00011053
Loading maneuver chart data...
Computing Atmospheric mass density...
Loading historical data...
Loading historical data...
Loading historical data...
Loading historical data...
Loading historical data...
Loading historical data...
Loading historical data...

Documentation

Showing up to 5 results
|